{"data":{"norad_id":54802,"intl_designator":"2022-175AW","name":"STARLINK-5426","alt_names":[],"object_type":"PAYLOAD","status":"ACTIVE","operator":null,"country":"US","launch_date":"2022-12-17","launch_site_code":"AFETR","launch_vehicle":null,"mission":null,"orbit_class":"UNKNOWN","rcs_meters":null,"size_class":null,"mass_kg":null,"dimensions":null,"purposes":["comms"],"wikipedia_slug":null,"has_3d_model":false,"image_url":null,"decayed_at":null,"tle_current":{"epoch":"2026-09-20T22:00:03.000096Z","epoch_age_seconds":56741,"freshness":"FRESH","line1":"1 54802U 22175AW  26263.91670139  .00019210  00000+0  78375-3 0  9996","line2":"2 54802  53.1611 191.0465 0001190 110.8256 107.5796 15.24464274  5647","mean_motion":15.24464274,"eccentricity":0.000119,"inclination_deg":53.1611,"raan_deg":191.0465,"arg_perigee_deg":110.8256,"mean_anomaly_deg":107.5796,"bstar":0.00078375,"rev_number":564,"period_min":94.459412697263,"perigee_km":491.57699369895,"apogee_km":493.21218021665,"semimajor_km":6870.5315869578,"source":"CELESTRAK","updated_at":"2026-09-21T09:00:33.129585Z"}}}